Location: Los Ranchitos
(37.9930°N, 122.5425°W)
Time: 08:34:26
(UTC+00:00)

Okean-O - Pass Details

Date: 21 September 2020
Orbit: 639 x 641 km, 98.2° (Epoch: 28 October)

Event Time Altitude Azimuth Distance (km) Brightness Sun altitude
Rises 02:58:27 0° 177° (S) 2,929 5.9 -10.5°
Reaches altitude 10° 03:00:41 10° 182° (S) 2,025 5.1 -10.9°
Maximum altitude 03:05:00 54° 260° (W) 781 3.5 -11.8°
Drops below altitude 10° 03:09:21 10° 338° (NNW) 2,040 5.7 -12.6°
Sets 03:11:37 0° 343° (NNW) 2,954 6.5 -13.0°
